Location: Tehachapi Municipal Airport
(35.1300°N, 118.4400°W)
Time: 00:26:29
(UTC-07:00)

BREEZE M DEB (TANK) - Visible Passes

Search period start: 19 August 2017 00:00
Search period end: 29 August 2017 00:00
Orbit: 302 x 11969 km, 49.5° (Epoch: 19 August)

Date Brightness Start Highest point End Pass type
(mag) Time Alt. Az. Time Alt. Az. Time Alt. Az.
19 Aug 6.7 02:04:41 38° SSE 02:15:33 51° ESE 03:30:33 10° NE visible
20 Aug 7.0 01:18:03 31° SE 01:27:53 38° E 02:28:36 10° NE visible
20 Aug 7.1 05:10:17 15° WSW 05:44:13 74° NNW 07:31:38 10° ENE visible
21 Aug 7.3 00:31:24 21° ESE 00:41:15 26° E 01:25:17 10° NE visible
21 Aug 6.8 04:23:38 27° WSW 04:47:24 81° NW 06:33:40 10° ENE visible
21 Aug 7.6 23:44:45 12° ESE 23:55:25 15° E 00:18:15 10° ENE visible
22 Aug 6.6 03:36:58 39° SW 03:53:25 89° SE 05:34:03 10° ENE visible
23 Aug 6.5 02:50:17 49° SSW 03:01:36 76° SE 04:33:15 10° NE visible
24 Aug 6.6 02:03:35 51° SSE 02:11:33 62° ESE 03:31:45 10° NE visible
25 Aug 6.8 01:16:52 43° SE 01:22:58 47° ESE 02:29:53 10° NE visible
25 Aug 7.3 05:09:04 14° W 05:46:58 70° NNW 07:33:14 10° E visible
26 Aug 7.1 00:30:07 32° ESE 00:35:34 34° E 01:27:34 10° NE visible
26 Aug 7.0 04:22:20 26° WSW 04:48:04 75° NNW 06:35:46 10° ENE visible
26 Aug 7.4 23:43:21 21° ESE 23:49:05 22° E 00:23:59 10° NE visible
27 Aug 6.7 03:35:34 40° WSW 03:52:31 83° NW 05:36:15 10° ENE visible
27 Aug 7.7 22:56:35 11° E 23:03:16 12° E 23:14:58 10° ENE visible
28 Aug 6.5 02:48:47 54° SW 02:59:27 87° SE 04:35:07 10° ENE visible
